• în România
  • Lista ţărilor
  • Pe 7 zile
  • Temperatura apei
  • Hartă satelitară
  • Meteo pe hartă
  • Widget-uri
  • user-avatar
    Intrare

    Meteo pe oră la Ghent

    Astăzi, 21 Octombrie, Sâmbătă

    Timp Temperatura Precipitaţii Vânt Presiune Umiditate
    00:00 +10°C° 0 mm 5 m/s 758 mmHg 78%
    01:00 +10°C° 0 mm 6 m/s 757 mmHg 77%
    02:00 +11°C° 0 mm 6 m/s 756 mmHg 77%
    03:00 +11°C° 0 mm 7 m/s 756 mmHg 77%
    04:00 +11°C° 0,3 mm 7 m/s 756 mmHg 80%
    05:00 +12°C° 0,3 mm 7 m/s 755 mmHg 83%
    06:00 +12°C° 0,3 mm 8 m/s 755 mmHg 86%
    07:00 +14°C° 0,4 mm 7 m/s 755 mmHg 86%
    08:00 +15°C° 0,4 mm 7 m/s 755 mmHg 85%
    09:00 +15°C° 0,4 mm 7 m/s 755 mmHg 85%
    10:00 +15°C° 0,1 mm 8 m/s 756 mmHg 77%
    11:00 +16°C° 0,1 mm 8 m/s 756 mmHg 70%
    12:00 +16°C° 0,1 mm 9 m/s 756 mmHg 63%
    13:00 +16°C° 0,1 mm 9 m/s 756 mmHg 62%
    14:00 +15°C° 0,1 mm 8 m/s 756 mmHg 62%
    15:00 +15°C° 0,1 mm 8 m/s 756 mmHg 61%
    16:00 +13°C° 0 mm 8 m/s 756 mmHg 63%
    17:00 +12°C° 0 mm 8 m/s 756 mmHg 65%
    18:00 +11°C° 0 mm 8 m/s 756 mmHg 67%
    19:00 +11°C° 0 mm 8 m/s 756 mmHg 66%
    20:00 +11°C° 0 mm 9 m/s 756 mmHg 66%
    21:00 +11°C° 0 mm 10 m/s 756 mmHg 65%
    22:00 +11°C° 0,2 mm 10 m/s 756 mmHg 67%
    23:00 +11°C° 0,2 mm 10 m/s 756 mmHg 69%

    Mâine, 22 Octombrie, Duminică

    Timp Temperatura Precipitaţii Vânt Presiune Umiditate
    00:00 +11°C° 0,2 mm 10 m/s 756 mmHg 71%
    01:00 +11°C° 0,2 mm 10 m/s 756 mmHg 72%
    02:00 +11°C° 0,2 mm 10 m/s 756 mmHg 74%
    03:00 +11°C° 0,2 mm 9 m/s 756 mmHg 75%
    04:00 +10°C° 0,2 mm 9 m/s 757 mmHg 76%
    05:00 +10°C° 0,2 mm 9 m/s 757 mmHg 77%
    06:00 +10°C° 0,2 mm 8 m/s 757 mmHg 78%
    07:00 +10°C° 0,2 mm 8 m/s 757 mmHg 76%
    08:00 +10°C° 0,2 mm 8 m/s 757 mmHg 75%
    09:00 +11°C° 0,2 mm 8 m/s 758 mmHg 73%
    10:00 +11°C° 0,2 mm 8 m/s 758 mmHg 70%
    11:00 +11°C° 0,2 mm 9 m/s 758 mmHg 68%
    12:00 +12°C° 0,2 mm 9 m/s 758 mmHg 65%
    13:00 +11°C° 0,3 mm 8 m/s 758 mmHg 66%
    14:00 +11°C° 0,3 mm 8 m/s 759 mmHg 67%
    15:00 +11°C° 0,3 mm 7 m/s 759 mmHg 69%
    16:00 +11°C° 0,2 mm 7 m/s 759 mmHg 69%
    17:00 +10°C° 0,2 mm 6 m/s 760 mmHg 69%
    18:00 +10°C° 0,2 mm 6 m/s 760 mmHg 68%
    19:00 +10°C° 0,1 mm 6 m/s 761 mmHg 70%
    20:00 +10°C° 0,1 mm 6 m/s 761 mmHg 71%
    21:00 +10°C° 0,1 mm 6 m/s 761 mmHg 72%
    22:00 +10°C° 0,2 mm 6 m/s 762 mmHg 74%
    23:00 +10°C° 0,2 mm 6 m/s 762 mmHg 76%

    Poimâine, 23 Octombrie, Luni

    Timp Temperatura Precipitaţii Vânt Presiune Umiditate
    00:00 +9°C° 0,2 mm 6 m/s 762 mmHg 79%
    01:00 +9°C° 0,2 mm 6 m/s 762 mmHg 79%
    02:00 +9°C° 0,2 mm 6 m/s 762 mmHg 80%
    03:00 +9°C° 0,2 mm 6 m/s 762 mmHg 81%
    04:00 +10°C° 0,2 mm 6 m/s 763 mmHg 82%
    05:00 +10°C° 0,2 mm 5 m/s 763 mmHg 83%
    06:00 +10°C° 0,2 mm 5 m/s 763 mmHg 84%
    07:00 +10°C° 0,1 mm 5 m/s 763 mmHg 84%
    08:00 +12°C° 0,1 mm 5 m/s 763 mmHg 83%
    09:00 +13°C° 0,1 mm 5 m/s 763 mmHg 83%
    10:00 +12°C° 0,5 mm 5 m/s 763 mmHg 85%
    11:00 +12°C° 0,5 mm 5 m/s 763 mmHg 87%
    12:00 +12°C° 0,5 mm 5 m/s 763 mmHg 90%
    13:00 +12°C° 0,9 mm 5 m/s 763 mmHg 90%
    14:00 +12°C° 0,9 mm 5 m/s 763 mmHg 91%
    15:00 +12°C° 0,9 mm 5 m/s 763 mmHg 92%
    16:00 +13°C° 0,8 mm 5 m/s 763 mmHg 92%
    17:00 +13°C° 0,8 mm 5 m/s 763 mmHg 93%
    18:00 +13°C° 0,8 mm 5 m/s 763 mmHg 93%
    19:00 +14°C° 0,1 mm 4 m/s 763 mmHg 94%
    20:00 +14°C° 0,1 mm 4 m/s 763 mmHg 94%
    21:00 +14°C° 0,1 mm 4 m/s 763 mmHg 95%
    22:00 +14°C° 0 mm 4 m/s 763 mmHg 95%
    23:00 +14°C° 0 mm 4 m/s 764 mmHg 96%

    24 Octombrie, Marţi

    Timp Temperatura Precipitaţii Vânt Presiune Umiditate
    00:00 +14°C° 0 mm 3 m/s 764 mmHg 96%
    01:00 +14°C° 0 mm 3 m/s 764 mmHg 96%
    02:00 +14°C° 0 mm 3 m/s 764 mmHg 96%
    03:00 +14°C° 0 mm 3 m/s 764 mmHg 96%
    04:00 +14°C° 0 mm 3 m/s 764 mmHg 96%
    05:00 +13°C° 0 mm 3 m/s 764 mmHg 96%
    06:00 +13°C° 0 mm 3 m/s 765 mmHg 97%
    07:00 +13°C° 0,2 mm 3 m/s 765 mmHg 96%
    08:00 +14°C° 0,2 mm 4 m/s 765 mmHg 95%
    09:00 +14°C° 0,2 mm 4 m/s 765 mmHg 95%
    10:00 +15°C° 0,2 mm 4 m/s 766 mmHg 94%
    11:00 +15°C° 0,2 mm 4 m/s 766 mmHg 93%
    12:00 +17°C° 0,2 mm 4 m/s 766 mmHg 93%
    13:00 +17°C° 0,1 mm 4 m/s 766 mmHg 92%
    14:00 +17°C° 0,1 mm 4 m/s 766 mmHg 92%
    15:00 +18°C° 0,1 mm 4 m/s 766 mmHg 91%
    16:00 +17°C° 0 mm 4 m/s 766 mmHg 92%
    17:00 +17°C° 0 mm 4 m/s 766 mmHg 93%
    18:00 +17°C° 0 mm 4 m/s 766 mmHg 94%
    19:00 +17°C° 0 mm 4 m/s 766 mmHg 94%
    20:00 +15°C° 0 mm 4 m/s 766 mmHg 94%
    21:00 +15°C° 0 mm 4 m/s 767 mmHg 93%
    22:00 +15°C° 0 mm 4 m/s 767 mmHg 94%
    23:00 +15°C° 0 mm 4 m/s 767 mmHg 94%

    25 Octombrie, Miercuri

    Timp Temperatura Precipitaţii Vânt Presiune Umiditate
    00:00 +15°C° 0 mm 4 m/s 767 mmHg 94%
    01:00 +15°C° 0 mm 4 m/s 767 mmHg 94%
    02:00 +14°C° 0 mm 4 m/s 766 mmHg 95%
    03:00 +14°C° 0 mm 4 m/s 766 mmHg 95%
    04:00 +14°C° 0 mm 4 m/s 766 mmHg 95%
    05:00 +13°C° 0 mm 4 m/s 766 mmHg 95%
    06:00 +13°C° 0 mm 4 m/s 766 mmHg 95%
    07:00 +14°C° 0 mm 4 m/s 767 mmHg 93%
    08:00 +15°C° 0 mm 4 m/s 767 mmHg 90%
    09:00 +15°C° 0 mm 4 m/s 767 mmHg 87%
    10:00 +17°C° 0 mm 4 m/s 767 mmHg 83%
    11:00 +19°C° 0 mm 4 m/s 767 mmHg 80%
    12:00 +20°C° 0 mm 4 m/s 767 mmHg 76%
    13:00 +20°C° 0 mm 3 m/s 766 mmHg 77%
    14:00 +20°C° 0 mm 3 m/s 766 mmHg 77%
    15:00 +20°C° 0 mm 2 m/s 766 mmHg 78%
    16:00 +19°C° 0 mm 2 m/s 766 mmHg 82%
    17:00 +18°C° 0 mm 2 m/s 766 mmHg 86%
    18:00 +17°C° 0 mm 2 m/s 766 mmHg 91%
    19:00 +16°C° 0 mm 2 m/s 766 mmHg 91%
    20:00 +16°C° 0 mm 2 m/s 767 mmHg 91%
    21:00 +16°C° 0 mm 2 m/s 767 mmHg 90%
    22:00 +15°C° 0 mm 2 m/s 767 mmHg 90%
    23:00 +15°C° 0 mm 2 m/s 767 mmHg 90%

    26 Octombrie, Joi

    Timp Temperatura Precipitaţii Vânt Presiune Umiditate
    00:00 +15°C° 0 mm 2 m/s 766 mmHg 89%
    01:00 +14°C° 0 mm 3 m/s 766 mmHg 89%
    02:00 +14°C° 0 mm 3 m/s 766 mmHg 90%
    03:00 +13°C° 0 mm 3 m/s 766 mmHg 90%
    04:00 +13°C° 0 mm 3 m/s 766 mmHg 90%
    05:00 +13°C° 0 mm 3 m/s 766 mmHg 90%
    06:00 +13°C° 0 mm 3 m/s 766 mmHg 90%
    07:00 +14°C° 0 mm 3 m/s 766 mmHg 85%
    08:00 +15°C° 0 mm 4 m/s 766 mmHg 80%
    09:00 +17°C° 0 mm 4 m/s 766 mmHg 75%
    10:00 +18°C° 0 mm 4 m/s 766 mmHg 71%
    11:00 +19°C° 0 mm 4 m/s 766 mmHg 67%
    12:00 +21°C° 0 mm 4 m/s 766 mmHg 63%
    13:00 +21°C° 0 mm 3 m/s 766 mmHg 64%
    14:00 +21°C° 0 mm 3 m/s 766 mmHg 66%
    15:00 +21°C° 0 mm 3 m/s 765 mmHg 68%
    16:00 +19°C° 0 mm 3 m/s 766 mmHg 73%
    17:00 +18°C° 0 mm 3 m/s 766 mmHg 78%
    18:00 +16°C° 0 mm 3 m/s 766 mmHg 83%
    19:00 +16°C° 0 mm 3 m/s 766 mmHg 84%
    20:00 +14°C° 0 mm 3 m/s 766 mmHg 85%
    21:00 +14°C° 0 mm 3 m/s 766 mmHg 86%
    22:00 +14°C° 0 mm 2 m/s 766 mmHg 87%
    23:00 +14°C° 0 mm 2 m/s 767 mmHg 87%
    Arată mai mult